sat.trackr.live / text

‹ back to catalog

STARLINK-34181

NORAD 64144 · 2025-111X

PAYLOAD ACTIVE UNKNOWN

§ Identity

Operator
Country
US
Launch date
2025-05-24
Launch site
AFETR
Launch vehicle
Mass (kg)
RCS (m²)

Purposes: comms

External: N2YO · Heavens-Above · Gunter

§ Orbital elements

Epoch: 2026-09-20T03:38:04.071264Z

Period
94.27 min
Inclination
42.9982°
Eccentricity
0.0001678
Mean motion
15.27585407 rev/d
Perigee alt
481.9 km
Apogee alt
484.2 km
Semi-major
6,861.2 km
B*
4.0318e-4
RAAN
59.6655°
Arg perigee
271.5249°
Mean anomaly
88.5411°
Rev number
7,520

§ Raw data

STARLINK-341811 64144U 25111X   26263.15143601  .00010851  00000+0  40318-3 0  99922 64144  42.9982  59.6655 0001678 271.5249  88.5411 15.27585407 75208

JSON: /api/v1/satellites/64144 · /tle

For live sub-satellite position, see the globe view (requires WebGL).

§ Visibility from observer

Set your observer location to see the next 7 days of passes ≥ 10°. The values pass through the URL so the page stays shareable.

No JS? Fill the form by hand. The geolocation button needs JavaScript.